Year,Month,Day,Hour,Minute,Value (Times are PST for temperature in C)
2015,03,07,00,00,4.70
2015,03,07,00,01,4.60
2015,03,07,00,02,4.60
2015,03,07,00,03,4.60
2015,03,07,00,04,4.60
2015,03,07,00,05,4.60
2015,03,07,00,06,4.60
2015,03,07,00,07,4.60
2015,03,07,00,08,4.60
2015,03,07,00,09,4.50
2015,03,07,00,10,4.50
2015,03,07,00,11,4.50
2015,03,07,00,12,4.50
2015,03,07,00,13,4.50
2015,03,07,00,14,4.50
2015,03,07,00,15,4.50
2015,03,07,00,16,4.40
2015,03,07,00,17,4.40
2015,03,07,00,18,4.40
2015,03,07,00,19,4.40
2015,03,07,00,20,4.40
2015,03,07,00,21,4.40
2015,03,07,00,22,4.40
2015,03,07,00,23,4.40
2015,03,07,00,24,4.40
2015,03,07,00,25,4.40
2015,03,07,00,26,4.30
2015,03,07,00,27,4.30
2015,03,07,00,28,4.30
2015,03,07,00,29,4.30
2015,03,07,00,30,4.30
2015,03,07,00,31,4.30
2015,03,07,00,32,4.30
2015,03,07,00,33,4.30
2015,03,07,00,34,4.30
2015,03,07,00,35,4.20
2015,03,07,00,36,4.20
2015,03,07,00,37,4.20
2015,03,07,00,38,4.20
2015,03,07,00,39,4.20
2015,03,07,00,40,4.20
2015,03,07,00,41,4.20
2015,03,07,00,42,4.20
2015,03,07,00,43,4.20
2015,03,07,00,44,4.20
2015,03,07,00,45,4.20
2015,03,07,00,46,4.10
2015,03,07,00,47,4.10
2015,03,07,00,48,4.10
2015,03,07,00,49,4.10
2015,03,07,00,50,4.10
2015,03,07,00,51,4.10
2015,03,07,00,52,4.10
2015,03,07,00,53,4.10
2015,03,07,00,54,4.10
2015,03,07,00,55,4.10
2015,03,07,00,56,4.10
2015,03,07,00,57,4.10
2015,03,07,00,58,4.20
2015,03,07,00,59,4.10
2015,03,07,01,00,4.20
2015,03,07,01,01,4.10
2015,03,07,01,02,4.10
2015,03,07,01,03,4.20
2015,03,07,01,04,4.10
2015,03,07,01,05,4.10
2015,03,07,01,06,4.10
2015,03,07,01,07,4.10
2015,03,07,01,08,4.10
2015,03,07,01,09,4.10
2015,03,07,01,10,4.10
2015,03,07,01,11,4.10
2015,03,07,01,12,4.10
2015,03,07,01,13,4.10
2015,03,07,01,14,4.10
2015,03,07,01,15,4.10
2015,03,07,01,16,4.00
2015,03,07,01,17,4.00
2015,03,07,01,18,4.00
2015,03,07,01,19,4.00
2015,03,07,01,20,4.00
2015,03,07,01,21,4.00
2015,03,07,01,22,3.90
2015,03,07,01,23,3.90
2015,03,07,01,24,3.90
2015,03,07,01,25,3.90
2015,03,07,01,26,3.90
2015,03,07,01,27,3.90
2015,03,07,01,28,3.90
2015,03,07,01,29,3.90
2015,03,07,01,30,3.90
2015,03,07,01,31,4.00
2015,03,07,01,32,4.00
2015,03,07,01,33,4.00
2015,03,07,01,34,3.90
2015,03,07,01,35,4.00
2015,03,07,01,36,4.00
2015,03,07,01,37,4.00
2015,03,07,01,38,4.00
2015,03,07,01,39,4.00
2015,03,07,01,40,4.00
2015,03,07,01,41,4.00
2015,03,07,01,42,4.00
2015,03,07,01,43,4.00
2015,03,07,01,44,4.00
2015,03,07,01,45,4.00
2015,03,07,01,46,4.00
2015,03,07,01,47,4.00
2015,03,07,01,48,4.00
2015,03,07,01,49,4.10
2015,03,07,01,50,4.10
2015,03,07,01,51,4.10
2015,03,07,01,52,4.10
2015,03,07,01,53,4.10
2015,03,07,01,54,4.10
2015,03,07,01,55,4.10
2015,03,07,01,56,4.10
2015,03,07,01,57,4.10
2015,03,07,01,58,4.10
2015,03,07,01,59,4.10
2015,03,07,02,00,4.10
2015,03,07,02,01,4.10
2015,03,07,02,02,4.10
2015,03,07,02,03,4.10
2015,03,07,02,04,4.10
2015,03,07,02,05,4.10
2015,03,07,02,06,4.10
2015,03,07,02,07,4.10
2015,03,07,02,08,4.20
2015,03,07,02,09,4.20
2015,03,07,02,10,4.20
2015,03,07,02,11,4.20
2015,03,07,02,12,4.20
2015,03,07,02,13,4.20
2015,03,07,02,14,4.20
2015,03,07,02,15,4.20
2015,03,07,02,16,4.20
2015,03,07,02,17,4.20
2015,03,07,02,18,4.20
2015,03,07,02,19,4.20
2015,03,07,02,20,4.20
2015,03,07,02,21,4.20
2015,03,07,02,22,4.20
2015,03,07,02,23,4.20
2015,03,07,02,24,4.20
2015,03,07,02,25,4.20
2015,03,07,02,26,4.20
2015,03,07,02,27,4.20
2015,03,07,02,28,4.20
2015,03,07,02,29,4.20
2015,03,07,02,30,4.20
2015,03,07,02,31,4.20
2015,03,07,02,32,4.20
2015,03,07,02,33,4.20
2015,03,07,02,34,4.20
2015,03,07,02,35,4.20
2015,03,07,02,36,4.20
2015,03,07,02,37,4.20
2015,03,07,02,38,4.20
2015,03,07,02,39,4.30
2015,03,07,02,40,4.30
2015,03,07,02,41,4.30
2015,03,07,02,42,4.30
2015,03,07,02,43,4.30
2015,03,07,02,44,4.30
2015,03,07,02,45,4.30
2015,03,07,02,46,4.30
2015,03,07,02,47,4.30
2015,03,07,02,48,4.30
2015,03,07,02,49,4.30
2015,03,07,02,50,4.30
2015,03,07,02,51,4.30
2015,03,07,02,52,4.40
2015,03,07,02,53,4.40
2015,03,07,02,54,4.40
2015,03,07,02,55,4.40
2015,03,07,02,56,4.40
2015,03,07,02,57,4.40
2015,03,07,02,58,4.40
2015,03,07,02,59,4.40
2015,03,07,03,00,4.40
2015,03,07,03,01,4.40
2015,03,07,03,02,4.40
2015,03,07,03,03,4.40
2015,03,07,03,04,4.40
2015,03,07,03,05,4.40
2015,03,07,03,06,4.40
2015,03,07,03,07,4.50
2015,03,07,03,08,4.50
2015,03,07,03,09,4.50
2015,03,07,03,10,4.50
2015,03,07,03,11,4.50
2015,03,07,03,12,4.50
2015,03,07,03,13,4.50
2015,03,07,03,14,4.50
2015,03,07,03,15,4.50
2015,03,07,03,16,4.50
2015,03,07,03,17,4.50
2015,03,07,03,18,4.50
2015,03,07,03,19,4.50
2015,03,07,03,20,4.50
2015,03,07,03,21,4.50
2015,03,07,03,22,4.50
2015,03,07,03,23,4.50
2015,03,07,03,24,4.50
2015,03,07,03,25,4.50
2015,03,07,03,26,4.50
2015,03,07,03,27,4.40
2015,03,07,03,28,4.40
2015,03,07,03,29,4.40
2015,03,07,03,30,4.40
2015,03,07,03,31,4.40
2015,03,07,03,32,4.40
2015,03,07,03,33,4.40
2015,03,07,03,34,4.40
2015,03,07,03,35,4.40
2015,03,07,03,36,4.40
2015,03,07,03,37,4.40
2015,03,07,03,38,4.30
2015,03,07,03,39,4.30
2015,03,07,03,40,4.30
2015,03,07,03,41,4.30
2015,03,07,03,42,4.30
2015,03,07,03,43,4.30
2015,03,07,03,44,4.30
2015,03,07,03,45,4.30
2015,03,07,03,46,4.30
2015,03,07,03,47,4.30
2015,03,07,03,48,4.30
2015,03,07,03,49,4.30
2015,03,07,03,50,4.30
2015,03,07,03,51,4.30
2015,03,07,03,52,4.30
2015,03,07,03,53,4.30
2015,03,07,03,54,4.20
2015,03,07,03,55,4.30
2015,03,07,03,56,4.20
2015,03,07,03,57,4.20
2015,03,07,03,58,4.20
2015,03,07,03,59,4.20
2015,03,07,04,00,4.20
2015,03,07,04,01,4.20
2015,03,07,04,02,4.20
2015,03,07,04,03,4.20
2015,03,07,04,04,4.20
2015,03,07,04,05,4.20
2015,03,07,04,06,4.20
2015,03,07,04,07,4.20
2015,03,07,04,08,4.20
2015,03,07,04,09,4.20
2015,03,07,04,10,4.20
2015,03,07,04,11,4.30
2015,03,07,04,12,4.30
2015,03,07,04,13,4.30
2015,03,07,04,14,4.30
2015,03,07,04,15,4.30
2015,03,07,04,16,4.30
2015,03,07,04,17,4.30
2015,03,07,04,18,4.30
2015,03,07,04,19,4.30
2015,03,07,04,20,4.30
2015,03,07,04,21,4.30
2015,03,07,04,22,4.30
2015,03,07,04,23,4.30
2015,03,07,04,24,4.30
2015,03,07,04,25,4.30
2015,03,07,04,26,4.30
2015,03,07,04,27,4.30
2015,03,07,04,28,4.30
2015,03,07,04,29,4.30
2015,03,07,04,30,4.30
2015,03,07,04,31,4.30
2015,03,07,04,32,4.30
2015,03,07,04,33,4.30
2015,03,07,04,34,4.30
2015,03,07,04,35,4.30
2015,03,07,04,36,4.30
2015,03,07,04,37,4.30
2015,03,07,04,38,4.30
2015,03,07,04,39,4.30
2015,03,07,04,40,4.30
2015,03,07,04,41,4.30
2015,03,07,04,42,4.30
2015,03,07,04,43,4.30
2015,03,07,04,44,4.30
2015,03,07,04,45,4.30
2015,03,07,04,46,4.30
2015,03,07,04,47,4.30
2015,03,07,04,48,4.30
2015,03,07,04,49,4.30
2015,03,07,04,50,4.30
2015,03,07,04,51,4.30
2015,03,07,04,52,4.30
2015,03,07,04,53,4.30
2015,03,07,04,54,4.30
2015,03,07,04,55,4.30
2015,03,07,04,56,4.30
2015,03,07,04,57,4.30
2015,03,07,04,58,4.30
2015,03,07,04,59,4.30
2015,03,07,05,00,4.30
2015,03,07,05,01,4.30
2015,03,07,05,02,4.30
2015,03,07,05,03,4.30
2015,03,07,05,04,4.30
2015,03,07,05,05,4.30
2015,03,07,05,06,4.30
2015,03,07,05,07,4.30
2015,03,07,05,08,4.30
2015,03,07,05,09,4.30
2015,03,07,05,10,4.30
2015,03,07,05,11,4.30
2015,03,07,05,12,4.40
2015,03,07,05,13,4.40
2015,03,07,05,14,4.40
2015,03,07,05,15,4.40
2015,03,07,05,16,4.40
2015,03,07,05,17,4.40
2015,03,07,05,18,4.40
2015,03,07,05,19,4.40
2015,03,07,05,20,4.40
2015,03,07,05,21,4.40
2015,03,07,05,22,4.40
2015,03,07,05,23,4.40
2015,03,07,05,24,4.40
2015,03,07,05,25,4.40
2015,03,07,05,26,4.40
2015,03,07,05,27,4.40
2015,03,07,05,28,4.40
2015,03,07,05,29,4.40
2015,03,07,05,30,4.40
2015,03,07,05,31,4.40
2015,03,07,05,32,4.40
2015,03,07,05,33,4.40
2015,03,07,05,34,4.40
2015,03,07,05,35,4.40
2015,03,07,05,36,4.40
2015,03,07,05,37,4.40
2015,03,07,05,38,4.40
2015,03,07,05,39,4.40
2015,03,07,05,40,4.40
2015,03,07,05,41,4.40
2015,03,07,05,42,4.40
2015,03,07,05,43,4.40
2015,03,07,05,44,4.40
2015,03,07,05,45,4.40
2015,03,07,05,46,4.40
2015,03,07,05,47,4.40
2015,03,07,05,48,4.40
2015,03,07,05,49,4.40
2015,03,07,05,50,4.40
2015,03,07,05,51,4.40
2015,03,07,05,52,4.40
2015,03,07,05,53,4.40
2015,03,07,05,54,4.40
2015,03,07,05,55,4.40
2015,03,07,05,56,4.40
2015,03,07,05,57,4.40
2015,03,07,05,58,4.40
2015,03,07,05,59,4.40
2015,03,07,06,00,4.40
2015,03,07,06,01,4.40
2015,03,07,06,02,4.40
2015,03,07,06,03,4.40
2015,03,07,06,04,4.40
2015,03,07,06,05,4.40
2015,03,07,06,06,4.40
2015,03,07,06,07,4.40
2015,03,07,06,08,4.40
2015,03,07,06,09,4.40
2015,03,07,06,10,4.40
2015,03,07,06,11,4.40
2015,03,07,06,12,4.50
2015,03,07,06,13,4.40
2015,03,07,06,14,4.50
2015,03,07,06,15,4.50
2015,03,07,06,16,4.50
2015,03,07,06,17,4.50
2015,03,07,06,18,4.50
2015,03,07,06,19,4.50
2015,03,07,06,20,4.50
2015,03,07,06,21,4.50
2015,03,07,06,22,4.50
2015,03,07,06,23,4.50
2015,03,07,06,24,4.50
2015,03,07,06,25,4.50
2015,03,07,06,26,4.50
2015,03,07,06,27,4.50
2015,03,07,06,28,4.50
2015,03,07,06,29,4.50
2015,03,07,06,30,4.50
2015,03,07,06,31,4.50
2015,03,07,06,32,4.50
2015,03,07,06,33,4.50
2015,03,07,06,34,4.50
2015,03,07,06,35,4.50
2015,03,07,06,36,4.50
2015,03,07,06,37,4.50
2015,03,07,06,38,4.50
2015,03,07,06,39,4.50
2015,03,07,06,40,4.50
2015,03,07,06,41,4.50
2015,03,07,06,42,4.50
2015,03,07,06,43,4.60
2015,03,07,06,44,4.60
2015,03,07,06,45,4.60
2015,03,07,06,46,4.60
2015,03,07,06,47,4.60
2015,03,07,06,48,4.60
2015,03,07,06,49,4.60
2015,03,07,06,50,4.60
2015,03,07,06,51,4.60
2015,03,07,06,52,4.60
2015,03,07,06,53,4.60
2015,03,07,06,54,4.60
2015,03,07,06,55,4.60
2015,03,07,06,56,4.60
2015,03,07,06,57,4.60
2015,03,07,06,58,4.60
2015,03,07,06,59,4.50
2015,03,07,07,00,4.50
2015,03,07,07,01,4.50
2015,03,07,07,02,4.50
2015,03,07,07,03,4.50
2015,03,07,07,04,4.50
2015,03,07,07,05,4.50
2015,03,07,07,06,4.50
2015,03,07,07,07,4.50
2015,03,07,07,08,4.50
2015,03,07,07,09,4.50
2015,03,07,07,10,4.50
2015,03,07,07,11,4.50
2015,03,07,07,12,4.50
2015,03,07,07,13,4.50
2015,03,07,07,14,4.50
2015,03,07,07,15,4.50
2015,03,07,07,16,4.50
2015,03,07,07,17,4.50
2015,03,07,07,18,4.50
2015,03,07,07,19,4.50
2015,03,07,07,20,4.50
2015,03,07,07,21,4.50
2015,03,07,07,22,4.50
2015,03,07,07,23,4.50
2015,03,07,07,24,4.50
2015,03,07,07,25,4.50
2015,03,07,07,26,4.50
2015,03,07,07,27,4.50
2015,03,07,07,28,4.60
2015,03,07,07,29,4.60
2015,03,07,07,30,4.60
2015,03,07,07,31,4.60
2015,03,07,07,32,4.60
2015,03,07,07,33,4.60
2015,03,07,07,34,4.60
2015,03,07,07,35,4.60
2015,03,07,07,36,4.60
2015,03,07,07,37,4.60
2015,03,07,07,38,4.60
2015,03,07,07,39,4.60
2015,03,07,07,40,4.60
2015,03,07,07,41,4.60
2015,03,07,07,42,4.60
2015,03,07,07,43,4.60
2015,03,07,07,44,4.60
2015,03,07,07,45,4.60
2015,03,07,07,46,4.60
2015,03,07,07,47,4.60
2015,03,07,07,48,4.60
2015,03,07,07,49,4.60
2015,03,07,07,50,4.60
2015,03,07,07,51,4.60
2015,03,07,07,52,4.70
2015,03,07,07,53,4.70
2015,03,07,07,54,4.70
2015,03,07,07,55,4.70
2015,03,07,07,56,4.70
2015,03,07,07,57,4.70
2015,03,07,07,58,4.70
2015,03,07,07,59,4.70
2015,03,07,08,00,4.70
2015,03,07,08,01,4.70
2015,03,07,08,02,4.70
2015,03,07,08,03,4.70
2015,03,07,08,04,4.70
2015,03,07,08,05,4.70
2015,03,07,08,06,4.70
2015,03,07,08,07,4.70
2015,03,07,08,08,4.70
2015,03,07,08,09,4.70
2015,03,07,08,10,4.70
2015,03,07,08,11,4.70
2015,03,07,08,12,4.70
2015,03,07,08,13,4.80
2015,03,07,08,14,4.80
2015,03,07,08,15,4.80
2015,03,07,08,16,4.80
2015,03,07,08,17,4.80
2015,03,07,08,18,4.80
2015,03,07,08,19,4.80
2015,03,07,08,20,4.80
2015,03,07,08,21,4.90
2015,03,07,08,22,4.90
2015,03,07,08,23,4.90
2015,03,07,08,24,4.90
2015,03,07,08,25,4.90
2015,03,07,08,26,4.90
2015,03,07,08,27,5.00
2015,03,07,08,28,5.00
2015,03,07,08,29,5.00
2015,03,07,08,30,5.10
2015,03,07,08,31,5.10
2015,03,07,08,32,5.10
2015,03,07,08,33,5.10
2015,03,07,08,34,5.10
2015,03,07,08,35,5.10
2015,03,07,08,36,5.10
2015,03,07,08,37,5.10
2015,03,07,08,38,5.10
2015,03,07,08,39,5.10
2015,03,07,08,40,5.10
2015,03,07,08,41,5.10
2015,03,07,08,42,5.10
2015,03,07,08,43,5.10
2015,03,07,08,44,5.10
2015,03,07,08,45,5.10
2015,03,07,08,46,5.10
2015,03,07,08,47,5.10
2015,03,07,08,48,5.10
2015,03,07,08,49,5.10
2015,03,07,08,50,5.10
2015,03,07,08,51,5.10
2015,03,07,08,52,5.20
2015,03,07,08,53,5.20
2015,03,07,08,54,5.20
2015,03,07,08,55,5.20
2015,03,07,08,56,5.20
2015,03,07,08,57,5.20
2015,03,07,08,58,5.30
2015,03,07,08,59,5.30
2015,03,07,09,00,5.30
2015,03,07,09,01,5.30
2015,03,07,09,02,5.30
2015,03,07,09,03,5.40
2015,03,07,09,04,5.40
2015,03,07,09,05,5.40
2015,03,07,09,06,5.40
2015,03,07,09,07,5.40
2015,03,07,09,08,5.40
2015,03,07,09,09,5.40
2015,03,07,09,10,5.40
2015,03,07,09,11,5.50
2015,03,07,09,12,5.50
2015,03,07,09,13,5.50
2015,03,07,09,14,5.50
2015,03,07,09,15,5.50
2015,03,07,09,16,5.60
2015,03,07,09,17,5.60
2015,03,07,09,18,5.60
2015,03,07,09,19,5.60
2015,03,07,09,20,5.60
2015,03,07,09,21,5.60
2015,03,07,09,22,5.60
2015,03,07,09,23,5.60
2015,03,07,09,24,5.70
2015,03,07,09,25,5.70
2015,03,07,09,26,5.70
2015,03,07,09,27,5.70
2015,03,07,09,28,5.70
2015,03,07,09,29,5.70
2015,03,07,09,30,5.80
2015,03,07,09,31,5.80
2015,03,07,09,32,5.80
2015,03,07,09,33,5.80
2015,03,07,09,34,5.80
2015,03,07,09,35,5.90
2015,03,07,09,36,5.90
2015,03,07,09,37,5.90
2015,03,07,09,38,5.90
2015,03,07,09,39,5.90
2015,03,07,09,40,5.90
2015,03,07,09,41,5.90
2015,03,07,09,42,6.00
2015,03,07,09,43,6.00
2015,03,07,09,44,6.00
2015,03,07,09,45,6.00
2015,03,07,09,46,6.00
2015,03,07,09,47,6.00
2015,03,07,09,48,6.00
2015,03,07,09,49,6.00
2015,03,07,09,50,6.10
2015,03,07,09,51,6.10
2015,03,07,09,52,6.10
2015,03,07,09,53,6.10
2015,03,07,09,54,6.10
2015,03,07,09,55,6.20
2015,03,07,09,56,6.20
2015,03,07,09,57,6.20
2015,03,07,09,58,6.30
2015,03,07,09,59,6.30
2015,03,07,10,00,6.30
2015,03,07,10,01,6.40
2015,03,07,10,02,6.40
2015,03,07,10,03,6.50
2015,03,07,10,04,6.50
2015,03,07,10,05,6.50
2015,03,07,10,06,6.60
2015,03,07,10,07,6.60
2015,03,07,10,08,6.60
2015,03,07,10,09,6.70
2015,03,07,10,10,6.70
2015,03,07,10,11,6.70
2015,03,07,10,12,6.80
2015,03,07,10,13,6.80
2015,03,07,10,14,6.80
2015,03,07,10,15,6.90
2015,03,07,10,16,6.90
2015,03,07,10,17,6.90
2015,03,07,10,18,6.90
2015,03,07,10,19,6.90
2015,03,07,10,20,6.90
2015,03,07,10,21,6.90
2015,03,07,10,22,6.90
2015,03,07,10,23,6.90
2015,03,07,10,24,6.90
2015,03,07,10,25,6.80
2015,03,07,10,26,6.90
2015,03,07,10,27,6.90
2015,03,07,10,28,6.90
2015,03,07,10,29,6.90
2015,03,07,10,30,6.90
2015,03,07,10,31,6.90
2015,03,07,10,32,6.80
2015,03,07,10,33,6.80
2015,03,07,10,34,6.80
2015,03,07,10,35,6.80
2015,03,07,10,36,6.80
2015,03,07,10,37,6.80
2015,03,07,10,38,6.80
2015,03,07,10,39,6.80
2015,03,07,10,40,6.80
2015,03,07,10,41,6.80
2015,03,07,10,42,6.80
2015,03,07,10,43,6.80
2015,03,07,10,44,6.80
2015,03,07,10,45,6.90
2015,03,07,10,46,6.90
2015,03,07,10,47,6.90
2015,03,07,10,48,6.90
2015,03,07,10,49,6.90
2015,03,07,10,50,6.90
2015,03,07,10,51,6.90
2015,03,07,10,52,6.90
2015,03,07,10,53,7.00
2015,03,07,10,54,7.00
2015,03,07,10,55,7.00
2015,03,07,10,56,7.10
2015,03,07,10,57,7.10
2015,03,07,10,58,7.20
2015,03,07,10,59,7.20
2015,03,07,11,00,7.20
2015,03,07,11,01,7.20
2015,03,07,11,02,7.30
2015,03,07,11,03,7.30
2015,03,07,11,04,7.40
2015,03,07,11,05,7.40
2015,03,07,11,06,7.50
2015,03,07,11,07,7.60
2015,03,07,11,08,7.60
2015,03,07,11,09,7.70
2015,03,07,11,10,7.70
2015,03,07,11,11,7.70
2015,03,07,11,12,7.70
2015,03,07,11,13,7.70
2015,03,07,11,14,7.70
2015,03,07,11,15,7.70
2015,03,07,11,16,7.70
2015,03,07,11,17,7.70
2015,03,07,11,18,7.70
2015,03,07,11,19,7.70
2015,03,07,11,20,7.70
2015,03,07,11,21,7.70
2015,03,07,11,22,7.70
2015,03,07,11,23,7.80
2015,03,07,11,24,7.80
2015,03,07,11,25,7.80
2015,03,07,11,26,7.90
2015,03,07,11,27,7.90
2015,03,07,11,28,7.90
2015,03,07,11,29,7.90
2015,03,07,11,30,7.90
2015,03,07,11,31,8.00
2015,03,07,11,32,8.00
2015,03,07,11,33,8.10
2015,03,07,11,34,8.20
2015,03,07,11,35,8.30
2015,03,07,11,36,8.40
2015,03,07,11,37,8.50
2015,03,07,11,38,8.60
2015,03,07,11,39,8.70
2015,03,07,11,40,8.80
2015,03,07,11,41,8.90
2015,03,07,11,42,8.90
2015,03,07,11,43,8.90
2015,03,07,11,44,8.90
2015,03,07,11,45,8.90
2015,03,07,11,46,8.90
2015,03,07,11,47,8.90
2015,03,07,11,48,8.90
2015,03,07,11,49,8.90
2015,03,07,11,50,8.90
2015,03,07,11,51,9.00
2015,03,07,11,52,9.00
2015,03,07,11,53,9.00
2015,03,07,11,54,9.00
2015,03,07,11,55,9.00
2015,03,07,11,56,9.00
2015,03,07,11,57,9.00
2015,03,07,11,58,9.10
2015,03,07,11,59,9.10
2015,03,07,12,00,9.20
2015,03,07,12,01,9.20
2015,03,07,12,02,9.30
2015,03,07,12,03,9.30
2015,03,07,12,04,9.40
2015,03,07,12,05,9.50
2015,03,07,12,06,9.50
2015,03,07,12,07,9.60
2015,03,07,12,08,9.70
2015,03,07,12,09,9.70
2015,03,07,12,10,9.80
2015,03,07,12,11,9.80
2015,03,07,12,12,9.90
2015,03,07,12,13,9.90
2015,03,07,12,14,10.00
2015,03,07,12,15,10.00
2015,03,07,12,16,10.10
2015,03,07,12,17,10.20
2015,03,07,12,18,10.20
2015,03,07,12,19,10.30
2015,03,07,12,20,10.40
2015,03,07,12,21,10.50
2015,03,07,12,22,10.60
2015,03,07,12,23,10.70
2015,03,07,12,24,10.80
2015,03,07,12,25,10.80
2015,03,07,12,26,10.90
2015,03,07,12,27,11.00
2015,03,07,12,28,11.20
2015,03,07,12,29,11.20
2015,03,07,12,30,11.30
2015,03,07,12,31,11.40
2015,03,07,12,32,11.50
2015,03,07,12,33,11.60
2015,03,07,12,34,11.60
2015,03,07,12,35,11.70
2015,03,07,12,36,11.80
2015,03,07,12,37,11.80
2015,03,07,12,38,11.90
2015,03,07,12,39,11.90
2015,03,07,12,40,11.90
2015,03,07,12,41,11.90
2015,03,07,12,42,11.90
2015,03,07,12,43,11.90
2015,03,07,12,44,11.90
2015,03,07,12,45,11.90
2015,03,07,12,46,12.00
2015,03,07,12,47,12.00
2015,03,07,12,48,12.10
2015,03,07,12,49,12.10
2015,03,07,12,50,12.20
2015,03,07,12,51,12.20
2015,03,07,12,52,12.30
2015,03,07,12,53,12.30
2015,03,07,12,54,12.30
2015,03,07,12,55,12.40
2015,03,07,12,56,12.50
2015,03,07,12,57,12.50
2015,03,07,12,58,12.60
2015,03,07,12,59,12.60
2015,03,07,13,00,12.70
2015,03,07,13,01,12.70
2015,03,07,13,02,12.70
2015,03,07,13,03,12.70
2015,03,07,13,04,12.70
2015,03,07,13,05,12.70
2015,03,07,13,06,12.70
2015,03,07,13,07,12.70
2015,03,07,13,08,12.70
2015,03,07,13,09,12.70
2015,03,07,13,10,12.80
2015,03,07,13,11,12.80
2015,03,07,13,12,12.90
2015,03,07,13,13,12.90
2015,03,07,13,14,12.90
2015,03,07,13,15,13.00
2015,03,07,13,16,13.00
2015,03,07,13,17,13.10
2015,03,07,13,18,13.10
2015,03,07,13,19,13.20
2015,03,07,13,20,13.30
2015,03,07,13,21,13.30
2015,03,07,13,22,13.40
2015,03,07,13,23,13.40
2015,03,07,13,24,13.40
2015,03,07,13,25,13.50
2015,03,07,13,26,13.50
2015,03,07,13,27,13.60
2015,03,07,13,28,13.60
2015,03,07,13,29,13.70
2015,03,07,13,30,13.70
2015,03,07,13,31,13.80
2015,03,07,13,32,13.90
2015,03,07,13,33,14.00
2015,03,07,13,34,14.10
2015,03,07,13,35,14.10
2015,03,07,13,36,14.20
2015,03,07,13,37,14.20
2015,03,07,13,38,14.30
2015,03,07,13,39,14.40
2015,03,07,13,40,14.50
2015,03,07,13,41,14.50
2015,03,07,13,42,14.60
2015,03,07,13,43,14.70
2015,03,07,13,44,14.80
2015,03,07,13,45,14.80
2015,03,07,13,46,14.90
2015,03,07,13,47,14.90
2015,03,07,13,48,14.90
2015,03,07,13,49,14.90
2015,03,07,13,50,14.90
2015,03,07,13,51,14.90
2015,03,07,13,52,15.00
2015,03,07,13,53,15.00
2015,03,07,13,54,15.10
2015,03,07,13,55,15.20
2015,03,07,13,56,15.30
2015,03,07,13,57,15.30
2015,03,07,13,58,15.30
2015,03,07,13,59,15.40
2015,03,07,14,00,15.40
2015,03,07,14,01,15.40
2015,03,07,14,02,15.40
2015,03,07,14,03,15.30
2015,03,07,14,04,15.30
2015,03,07,14,05,15.30
2015,03,07,14,06,15.30
2015,03,07,14,07,15.30
2015,03,07,14,08,15.30
2015,03,07,14,09,15.30
2015,03,07,14,10,15.30
2015,03,07,14,11,15.40
2015,03,07,14,12,15.40
2015,03,07,14,13,15.60
2015,03,07,14,14,15.60
2015,03,07,14,15,15.80
2015,03,07,14,16,15.90
2015,03,07,14,17,16.00
2015,03,07,14,18,16.10
2015,03,07,14,19,16.20
2015,03,07,14,20,16.20
2015,03,07,14,21,16.20
2015,03,07,14,22,16.20
2015,03,07,14,23,16.20
2015,03,07,14,24,16.20
2015,03,07,14,25,16.20
2015,03,07,14,26,16.30
2015,03,07,14,27,16.30
2015,03,07,14,28,16.30
2015,03,07,14,29,16.40
2015,03,07,14,30,16.40
2015,03,07,14,31,16.50
2015,03,07,14,32,16.60
2015,03,07,14,33,16.60
2015,03,07,14,34,16.70
2015,03,07,14,35,16.80
2015,03,07,14,36,16.80
2015,03,07,14,37,16.80
2015,03,07,14,38,16.80
2015,03,07,14,39,16.80
2015,03,07,14,40,16.80
2015,03,07,14,41,16.80
2015,03,07,14,42,16.80
2015,03,07,14,43,16.80
2015,03,07,14,44,16.80
2015,03,07,14,45,16.80
2015,03,07,14,46,16.80
2015,03,07,14,47,16.80
2015,03,07,14,48,16.90
2015,03,07,14,49,16.90
2015,03,07,14,50,16.90
2015,03,07,14,51,16.90
2015,03,07,14,52,16.80
2015,03,07,14,53,16.80
2015,03,07,14,54,16.80
2015,03,07,14,55,16.80
2015,03,07,14,56,16.90
2015,03,07,14,57,17.00
2015,03,07,14,58,17.00
2015,03,07,14,59,17.10
2015,03,07,15,00,17.20
2015,03,07,15,01,17.30
2015,03,07,15,02,17.40
2015,03,07,15,03,17.40
2015,03,07,15,04,17.40
2015,03,07,15,05,17.50
2015,03,07,15,06,17.50
2015,03,07,15,07,17.60
2015,03,07,15,08,17.60
2015,03,07,15,09,17.60
2015,03,07,15,10,17.60
2015,03,07,15,11,17.60
2015,03,07,15,12,17.60
2015,03,07,15,13,17.60
2015,03,07,15,14,17.50
2015,03,07,15,15,17.50
2015,03,07,15,16,17.40
2015,03,07,15,17,17.40
2015,03,07,15,18,17.40
2015,03,07,15,19,17.30
2015,03,07,15,20,17.30
2015,03,07,15,21,17.30
2015,03,07,15,22,17.30
2015,03,07,15,23,17.30
2015,03,07,15,24,17.20
2015,03,07,15,25,17.20
2015,03,07,15,26,17.20
2015,03,07,15,27,17.20
2015,03,07,15,28,17.20
2015,03,07,15,29,17.20
2015,03,07,15,30,17.30
2015,03,07,15,31,17.30
2015,03,07,15,32,17.40
2015,03,07,15,33,17.50
2015,03,07,15,34,17.60
2015,03,07,15,35,17.70
2015,03,07,15,36,17.70
2015,03,07,15,37,17.70
2015,03,07,15,38,17.80
2015,03,07,15,39,17.80
2015,03,07,15,40,17.80
2015,03,07,15,41,17.80
2015,03,07,15,42,17.90
2015,03,07,15,43,17.90
2015,03,07,15,44,18.00
2015,03,07,15,45,18.00
2015,03,07,15,46,18.00
2015,03,07,15,47,18.00
2015,03,07,15,48,17.90
2015,03,07,15,49,17.80
2015,03,07,15,50,17.70
2015,03,07,15,51,17.60
2015,03,07,15,52,17.50
2015,03,07,15,53,17.40
2015,03,07,15,54,17.30
2015,03,07,15,55,17.30
2015,03,07,15,56,17.20
2015,03,07,15,57,17.20
2015,03,07,15,58,17.20
2015,03,07,15,59,17.20
2015,03,07,16,00,17.10
2015,03,07,16,01,17.10
2015,03,07,16,02,17.10
2015,03,07,16,03,17.10
2015,03,07,16,04,17.10
2015,03,07,16,05,17.10
2015,03,07,16,06,17.10
2015,03,07,16,07,17.20
2015,03,07,16,08,17.20
2015,03,07,16,09,17.20
2015,03,07,16,10,17.20
2015,03,07,16,11,17.20
2015,03,07,16,12,17.20
2015,03,07,16,13,17.30
2015,03,07,16,14,17.30
2015,03,07,16,15,17.30
2015,03,07,16,16,17.30
2015,03,07,16,17,17.30
2015,03,07,16,18,17.30
2015,03,07,16,19,17.40
2015,03,07,16,20,17.40
2015,03,07,16,21,17.40
2015,03,07,16,22,17.40
2015,03,07,16,23,17.40
2015,03,07,16,24,17.40
2015,03,07,16,25,17.40
2015,03,07,16,26,17.40
2015,03,07,16,27,17.40
2015,03,07,16,28,17.30
2015,03,07,16,29,17.20
2015,03,07,16,30,17.00
2015,03,07,16,31,16.80
2015,03,07,16,32,16.60
2015,03,07,16,33,16.50
2015,03,07,16,34,16.30
2015,03,07,16,35,16.20
2015,03,07,16,36,16.10
2015,03,07,16,37,16.00
2015,03,07,16,38,16.00
2015,03,07,16,39,15.90
2015,03,07,16,40,15.90
2015,03,07,16,41,15.90
2015,03,07,16,42,15.90
2015,03,07,16,43,15.90
2015,03,07,16,44,15.90
2015,03,07,16,45,15.80
2015,03,07,16,46,15.80
2015,03,07,16,47,15.70
2015,03,07,16,48,15.60
2015,03,07,16,49,15.50
2015,03,07,16,50,15.50
2015,03,07,16,51,15.40
2015,03,07,16,52,15.30
2015,03,07,16,53,15.20
2015,03,07,16,54,15.10
2015,03,07,16,55,14.90
2015,03,07,16,56,14.80
2015,03,07,16,57,14.70
2015,03,07,16,58,14.50
2015,03,07,16,59,14.40
2015,03,07,17,00,14.30
2015,03,07,17,01,14.10
2015,03,07,17,02,14.00
2015,03,07,17,03,13.90
2015,03,07,17,04,13.80
2015,03,07,17,05,13.70
2015,03,07,17,06,13.60
2015,03,07,17,07,13.50
2015,03,07,17,08,13.40
2015,03,07,17,09,13.30
2015,03,07,17,10,13.30
2015,03,07,17,11,13.20
2015,03,07,17,12,13.20
2015,03,07,17,13,13.10
2015,03,07,17,14,13.00
2015,03,07,17,15,12.90
2015,03,07,17,16,12.90
2015,03,07,17,17,12.90
2015,03,07,17,18,12.80
2015,03,07,17,19,12.80
2015,03,07,17,20,12.80
2015,03,07,17,21,12.70
2015,03,07,17,22,12.70
2015,03,07,17,23,12.70
2015,03,07,17,24,12.60
2015,03,07,17,25,12.60
2015,03,07,17,26,12.50
2015,03,07,17,27,12.50
2015,03,07,17,28,12.50
2015,03,07,17,29,12.40
2015,03,07,17,30,12.40
2015,03,07,17,31,12.40
2015,03,07,17,32,12.40
2015,03,07,17,33,12.40
2015,03,07,17,34,12.30
2015,03,07,17,35,12.30
2015,03,07,17,36,12.30
2015,03,07,17,37,12.20
2015,03,07,17,38,12.20
2015,03,07,17,39,12.20
2015,03,07,17,40,12.10
2015,03,07,17,41,12.10
2015,03,07,17,42,12.00
2015,03,07,17,43,11.90
2015,03,07,17,44,11.90
2015,03,07,17,45,11.80
2015,03,07,17,46,11.80
2015,03,07,17,47,11.80
2015,03,07,17,48,11.70
2015,03,07,17,49,11.70
2015,03,07,17,50,11.60
2015,03,07,17,51,11.60